(53241) = 1999 CU128 = 2000 LE27

Discovered at Socorro on 1999-02-11 by LINEAR.

Orbit

Orbit type: Main Belt

Note: WebGL enabled browser required.

epoch2024-03-31.0
epoch JD2460400.5
perihelion date2020-06-21.49644
perihelion JD2459021.99644
argument of perihelion (°)135.69520
ascending node (°)106.95587
inclination (°)14.56165
eccentricity0.1180817
perihelion distance (AU)2.2680477
Tisserand w.r.t. Jupiter3.4
ΔV w.r.t. Earth (km/sec)10.5
semimajor axis (AU)2.5717210
mean anomaly (°)329.43971
mean daily motion (°/day)0.23898360
aphelion distance (AU)2.875
period (years)4.12
P-vector [x]-0.43794684
P-vector [y]-0.87878172
P-vector [z]-0.18959236
Q-vector [x]0.86623674
Q-vector [y]-0.35607919
Q-vector [z]-0.35048754
absolute magnitude14.89
phase slope0.15
uncertainty0
referenceMPEC 2024-F74
observations used1634
oppositions20
arc length (days)9170
first opposition used1999
last opposition used2024
residual rms (arc-secs)0.68
perturbers coarse indicatorM-v
perturbers precise indicator003Ek
first observation date used1999-02-11.0
last observation date used2024-03-21.0
computer nameMPCLINUX
JD of orbit computation2456937.392268
perihelion JD uncertainty (days)1.0019E-04
argument of perihelion uncertainty (°)2.3973E-05
ascending node uncertainty (°)1.5193E-05
inclination uncertainty (°)3.4703E-06
eccentricity uncertainty 3.6546E-08
perihelion distance uncertainty (AU)9.6703E-08
Minimum Orbit Intersection Distances (in AU)
for orbit epoch: 2460400.5, reference: E2024-GH2
Mercury1.81552
Venus1.55558
Earth1.27477
Mars0.82257
Jupiter2.2413
Saturn6.20633
Uranus15.9126
Neptune27.0241

Observations

1663 total observations over interval: 1999 02 11.44717 – 2024 03 21.614681
These data are available for download (format description).

Date (UT) J2000 RA J2000 Dec Magn Location Ref
1999 02 11.44717 12 24 15.69 +17 58 58.3 18.9   704 – Lincoln Laboratory ETS, New Mexico MPS 4189
1999 02 11.45953 12 24 15.55 +17 59 05.0 18.9   704 – Lincoln Laboratory ETS, New Mexico MPS 4189
1999 02 11.47194 12 24 15.48 +17 59 11.8 19.0   704 – Lincoln Laboratory ETS, New Mexico MPS 4189
1999 02 11.48438 12 24 15.25 +17 59 20.9 19.1   704 – Lincoln Laboratory ETS, New Mexico MPS 4189
1999 02 11.49658 12 24 15.25 +17 59 29.9 19.1   704 – Lincoln Laboratory ETS, New Mexico MPS 4189
1999 02 18.41826 12 22 32.69 +19 14 34.5 19.2   704 – Lincoln Laboratory ETS, New Mexico MPS 4189
1999 02 18.43933 12 22 32.16 +19 14 49.8 18.9   704 – Lincoln Laboratory ETS, New Mexico MPS 4189
1999 02 18.46017 12 22 31.71 +19 15 03.3 19.5   704 – Lincoln Laboratory ETS, New Mexico MPS 4189
1999 02 18.48100 12 22 31.26 +19 15 16.7 19.1   704 – Lincoln Laboratory ETS, New Mexico MPS 4189
1999 02 18.50211 12 22 30.63 +19 15 30.4 19.2   704 – Lincoln Laboratory ETS, New Mexico MPS 4189
1999 03 21.30581 12 01 34.59 +24 22 57.6 19.2 R 699 – Lowell Observatory-LONEOS MPS 16452
1999 03 21.32646 12 01 33.45 +24 23 05.0   699 – Lowell Observatory-LONEOS MPS 16452
1999 03 21.34698 12 01 32.38 +24 23 15.0   699 – Lowell Observatory-LONEOS MPS 16452
1999 04 10.13570 11 45 42.71 +25 39 31.6 19.0   704 – Lincoln Laboratory ETS, New Mexico MPS 16452
1999 04 10.15483 11 45 42.01 +25 39 33.8 19.0   704 – Lincoln Laboratory ETS, New Mexico MPS 16452
1999 04 10.17378 11 45 41.05 +25 39 34.0 19.0   704 – Lincoln Laboratory ETS, New Mexico MPS 16452
1999 04 10.19277 11 45 40.37 +25 39 34.2 19.4   704 – Lincoln Laboratory ETS, New Mexico MPS 16452
1999 04 10.21184 11 45 39.67 +25 39 34.2 19.4   704 – Lincoln Laboratory ETS, New Mexico MPS 16452
2000 06 06.39200 22 09 17.17 -17 21 55.6 18.7 R 699 – Lowell Observatory-LONEOS MPS 16046
2000 06 06.40621 22 09 17.73 -17 21 58.2   699 – Lowell Observatory-LONEOS MPS 16046
2000 06 06.42053 22 09 18.40 -17 22 01.1   699 – Lowell Observatory-LONEOS MPS 16046
2000 06 06.43476 22 09 19.06 -17 22 04.3   699 – Lowell Observatory-LONEOS MPS 16046
2000 06 09.41912 22 11 24.38 -17 33 35.5 18.5 R 699 – Lowell Observatory-LONEOS MPS 16046
2000 06 09.42859 22 11 24.74 -17 33 36.1   699 – Lowell Observatory-LONEOS MPS 16046
2000 06 09.43807 22 11 25.14 -17 33 39.4   699 – Lowell Observatory-LONEOS MPS 16046
2000 06 09.44754 22 11 25.36 -17 33 40.9   699 – Lowell Observatory-LONEOS MPS 16046
2000 07 05.39220 22 20 18.54 -20 25 37.1 18.0 R 699 – Lowell Observatory-LONEOS MPS 17120
2000 07 05.40594 22 20 18.46 -20 25 45.1   699 – Lowell Observatory-LONEOS MPS 17120
2000 07 05.41966 22 20 18.52 -20 25 52.3   699 – Lowell Observatory-LONEOS MPS 17120
2000 07 05.43339 22 20 18.38 -20 25 59.5   699 – Lowell Observatory-LONEOS MPS 17120
2000 07 06.38308 22 20 17.12 -20 34 43.4 18.2 R 699 – Lowell Observatory-LONEOS MPS 17120
2000 07 06.39692 22 20 16.98 -20 34 50.8   699 – Lowell Observatory-LONEOS MPS 17120
2000 07 06.41075 22 20 16.98 -20 34 59.2   699 – Lowell Observatory-LONEOS MPS 17120
2000 07 06.42451 22 20 16.97 -20 35 06.2   699 – Lowell Observatory-LONEOS MPS 17120
2001 10 16.33172 04 44 46.09 +06 28 20.6 18.9   704 – Lincoln Laboratory ETS, New Mexico MPS 37461
2001 10 16.34746 04 44 45.66 +06 28 17.2 19.4   704 – Lincoln Laboratory ETS, New Mexico MPS 37461
2001 10 16.36322 04 44 45.43 +06 28 15.8 19.4   704 – Lincoln Laboratory ETS, New Mexico MPS 37461
2001 10 16.37945 04 44 45.10 +06 28 14.0 19.5   704 – Lincoln Laboratory ETS, New Mexico MPS 37461
2001 11 15.29934 04 25 25.58 +05 31 06.4 19.1   704 – Lincoln Laboratory ETS, New Mexico MPS 41649
2001 11 15.31406 04 25 24.71 +05 31 05.1 19.5   704 – Lincoln Laboratory ETS, New Mexico MPS 41649
2001 11 15.32879 04 25 23.92 +05 31 04.4 19.6   704 – Lincoln Laboratory ETS, New Mexico MPS 41649
2001 11 15.34350 04 25 23.07 +05 31 02.7 19.4   704 – Lincoln Laboratory ETS, New Mexico MPS 41649
2001 11 15.35826 04 25 22.22 +05 31 03.3 19.6   704 – Lincoln Laboratory ETS, New Mexico MPS 41649
2001 11 18.29987 04 22 35.94 +05 29 26.0 19.2   704 – Lincoln Laboratory ETS, New Mexico MPS 41649
2001 11 18.31489 04 22 35.03 +05 29 25.5 19.5   704 – Lincoln Laboratory ETS, New Mexico MPS 41650
2001 11 18.34489 04 22 33.29 +05 29 24.6 19.7   704 – Lincoln Laboratory ETS, New Mexico MPS 41650
2001 11 18.35989 04 22 32.44 +05 29 25.0 19.5   704 – Lincoln Laboratory ETS, New Mexico MPS 41650
2001 11 19.33462 04 21 36.29 +05 29 06.7 18.9 R 699 – Lowell Observatory-LONEOS MPS 41650
2001 11 19.35105 04 21 35.31 +05 29 06.0   699 – Lowell Observatory-LONEOS MPS 41650
2001 11 19.36748 04 21 34.34 +05 29 06.2   699 – Lowell Observatory-LONEOS MPS 41650
2001 11 19.38395 04 21 33.39 +05 29 05.7   699 – Lowell Observatory-LONEOS MPS 41650
2001 12 07.22527 04 04 06.05 +05 45 28.7 19.0   704 – Lincoln Laboratory ETS, New Mexico MPS 42998
2001 12 07.24042 04 04 04.97 +05 45 31.6 19.7   704 – Lincoln Laboratory ETS, New Mexico MPS 42998
2001 12 07.25622 04 04 04.20 +05 45 34.0 19.5   704 – Lincoln Laboratory ETS, New Mexico MPS 42998
2001 12 07.27158 04 04 03.24 +05 45 35.4 19.0   704 – Lincoln Laboratory ETS, New Mexico MPS 42998
2001 12 07.28638 04 04 02.37 +05 45 37.1 19.3   704 – Lincoln Laboratory ETS, New Mexico MPS 42998
2001 12 19.21893 03 53 49.99 +06 20 48.2 18.8   704 – Lincoln Laboratory ETS, New Mexico MPS 42998
2001 12 19.23392 03 53 49.27 +06 20 51.8 18.9   704 – Lincoln Laboratory ETS, New Mexico MPS 42998
2001 12 19.24889 03 53 48.61 +06 20 55.2 19.3   704 – Lincoln Laboratory ETS, New Mexico MPS 42998
2001 12 19.26402 03 53 47.92 +06 20 58.5 19.3   704 – Lincoln Laboratory ETS, New Mexico MPS 42998
2001 12 19.28014 03 53 47.18 +06 21 02.2 19.1   704 – Lincoln Laboratory ETS, New Mexico MPS 42998
2002 01 05.20612 03 44 16.94 +07 40 41.1 18.9 R 699 – Lowell Observatory-LONEOS MPS 46443
2002 01 05.22962 03 44 16.43 +07 40 48.8   699 – Lowell Observatory-LONEOS MPS 46443
2002 01 05.25320 03 44 15.93 +07 40 56.6   699 – Lowell Observatory-LONEOS MPS 46443
2002 01 05.30027 03 44 14.85 +07 41 11.7   699 – Lowell Observatory-LONEOS MPS 46443
2003 01 10.46183 11 20 07.93 +18 00 41.3 19.4   704 – Lincoln Laboratory ETS, New Mexico MPS 71137
2003 01 10.47973 11 20 08.22 +18 00 50.3 19.7   704 – Lincoln Laboratory ETS, New Mexico MPS 71137
2003 01 10.49436 11 20 08.38 +18 00 56.6 19.6   704 – Lincoln Laboratory ETS, New Mexico MPS 71137
2003 01 10.50864 11 20 08.66 +18 01 01.5 19.5   704 – Lincoln Laboratory ETS, New Mexico MPS 71137
2003 01 10.52295 11 20 08.77 +18 01 08.9 19.3   704 – Lincoln Laboratory ETS, New Mexico MPS 71137
2003 01 26.38094 11 20 40.61 +20 23 34.0 18.3   704 – Lincoln Laboratory ETS, New Mexico MPS 71137
2003 01 26.39525 11 20 40.49 +20 23 42.6 18.6   704 – Lincoln Laboratory ETS, New Mexico MPS 71137
2003 01 26.40961 11 20 40.26 +20 23 51.9 18.6   704 – Lincoln Laboratory ETS, New Mexico MPS 71137
2003 01 26.42390 11 20 40.07 +20 24 00.0 19.1   704 – Lincoln Laboratory ETS, New Mexico MPS 71137
2003 01 26.43846 11 20 39.95 +20 24 09.9 18.6   704 – Lincoln Laboratory ETS, New Mexico MPS 71137
2003 02 02.39092 11 18 40.02 +21 38 46.4 18.2   704 – Lincoln Laboratory ETS, New Mexico MPS 71137
2003 02 02.40573 11 18 39.64 +21 38 57.0 18.8   704 – Lincoln Laboratory ETS, New Mexico MPS 71137
2003 02 02.42918 11 18 38.98 +21 39 11.6 19.1   704 – Lincoln Laboratory ETS, New Mexico MPS 71137
2003 02 08.31439 11 15 55.34 +22 45 33.0 18.0 R 699 – Lowell Observatory-LONEOS MPS 73073
2003 02 08.33487 11 15 54.66 +22 45 47.0   699 – Lowell Observatory-LONEOS MPS 73073
2003 02 08.35532 11 15 54.00 +22 46 01.6   699 – Lowell Observatory-LONEOS MPS 73073
2003 02 08.37575 11 15 53.30 +22 46 15.1   699 – Lowell Observatory-LONEOS MPS 73073
2003 02 26.33529 11 02 50.34 +26 02 44.9 18.2   704 – Lincoln Laboratory ETS, New Mexico MPS 75436
2003 02 26.34798 11 02 49.63 +26 02 52.3 18.5   704 – Lincoln Laboratory ETS, New Mexico MPS 75436
2003 02 26.36040 11 02 49.00 +26 02 59.6 18.6   704 – Lincoln Laboratory ETS, New Mexico MPS 75436
2003 03 08.42153 10 53 51.33 +27 30 59.7 17.9   644 – Palomar Mountain/NEAT MPS 75436
2003 03 08.43067 10 53 50.83 +27 31 03.8 18.0   644 – Palomar Mountain/NEAT MPS 75436
